Regional Weather Roundup
Issued by NWS

Home | Current Version | Previous Version | Graphics & Text | Print | Product List | Glossary On
Versions: 1 2 3 4 5 6 7 8 9 10 11 12 13 14 15 16 17 18 19 20 21 22 23 24 25 26 27 28 29 30 31 32 33 34 35 36 37 38 39 40 41 42 43 44 45 46 47 48 49 50
000
ASUS43 KMKX 050421
RWRWI

WISCONSIN REGIONAL WEATHER ROUNDUP
NATIONAL WEATHER SERVICE MILWAUKEE/SULLIVAN WI
1000 PM CST WED MAR 04 2015

NOTE: "FAIR" INDICATES FEW OR NO CLOUDS BELOW 12,000 FEET WITH NO
SIGNIFICANT WEATHER AND/OR OBSTRUCTIONS TO VISIBILITY.

WIZ001-002-006>008-014>016-023>028-050500-
NORTHWEST WISCONSIN

CITY           SKY/WX    TMP DP  RH WIND       PRES   REMARKS
SUPERIOR ARPT  CLEAR     -3 -15  58 W7        30.38R WCI -17
ASHLAND        CLEAR     -5 -17  56 W8        30.33R WCI -20
HAYWARD        CLEAR    -13 -19  75 CALM      30.31R
SIREN          CLEAR     -6 -16  62 W3        30.37R
CUMBERLAND     CLEAR     -4 -17  54 W6        30.34R WCI -16
RICE LAKE      CLEAR     -8 -16  67 CALM      30.37R
CHETEK         CLEAR     -7 -15  69 SW3       30.37R
LADYSMITH      CLEAR     -5 -13  67 SW5       30.34R WCI -16
EAU CLAIRE     CLEAR      0 -13  54 W8        30.38R WCI -14
MENOMONIE      CLEAR      1 -12  54 W7        30.40R WCI -11
NEW RICHMOND   CLEAR     -3 -14  60 W6        30.41R WCI -16
OSCEOLA        CLEAR     -4 -14  62 W3        30.44R
$$

WIZ003>005-009-010-017-018-050500-
NORTH CENTRAL WISCONSIN

CITY           SKY/WX    TMP DP  RH WIND       PRES   REMARKS
MANITOWISH WTR CLEAR    -14 -19  76 CALM      30.22R
ARBOR VITAE    CLEAR    -10 -17  70 S5        30.24R WCI -22
WOODRUFF       CLEAR    -10 -17  70 S5        30.24R WCI -22
RHINELANDER    CLEAR     -7 -15  68 W6        30.23R WCI -20
EAGLE RIVER    CLEAR     -9 -18  65 SW5       30.22R WCI -21
LAND O LAKES   MOCLDY   -12 -17  79 SW5       30.21R WCI -24
PHILLIPS       CLEAR    -10 -15  78 CALM      30.27R
TOMAHAWK       PTCLDY   -13 -18  79 CALM      30.28R
MEDFORD        CLEAR     -5 -14  65 NW5       30.28R WCI -16
MERRILL        PTCLDY    -3 -13  61 CALM      30.29R
$$

WIZ029-030-035-036-043>047-050500-
CENTRAL WISCONSIN

CITY           SKY/WX    TMP DP  RH WIND       PRES   REMARKS
WAUSAU         CLEAR      0 -12  57 NW7       30.28R WCI -13
MOSINEE        CLEAR      0 -11  60 NW6       30.30R WCI -12
MARSHFIELD     CLEAR     -1 -12  59 NW8       30.31R WCI -15
STEVENS POINT  PTCLDY     1 -13  51 NW5       30.31R WCI  -8
WAUPACA        PTCLDY     8 -10  42 NW7       30.33R WCI  -3
WAUTOMA        MOCLDY     6 -10  47 NW7       30.34R WCI  -6
WISC RAPIDS    PTCLDY     3 -12  49 NW8       30.33R WCI -10
CAMP DOUGLAS   PTCLDY     3  -8  60 W6        30.35R WCI  -8
$$

WIZ011>013-019>022-031-037>040-048>050-050500-
NORTHEAST WISCONSIN

CITY           SKY/WX    TMP DP  RH WIND       PRES   REMARKS
ANTIGO         PTCLDY    -5 -13  67 NW7       30.25R WCI -19
SHAWANO        PTCLDY     5 -11  47 CALM      30.33R
OCONTO         PTCLDY     3 -10  52 NW5       30.32R WCI  -6
STURGEON BAY   PTCLDY     3 -11  51 NW8       30.33R WCI -10
GREEN BAY      PTCLDY     4  -9  55 NW6       30.32R WCI  -7
MANITOWOC      MOCLDY     8  -6  52 NW10      30.32R WCI  -6
APPLETON       CLEAR      7 -11  43 NW9       30.31R WCI  -7
CLINTONVILLE   PTCLDY     3 -11  51 NW6       30.32R WCI  -8
OSHKOSH        MOCLDY     7  -9  48 NW9       30.32R WCI  -7
$$

WIZ032>034-041-042-053>061-050500-
SOUTHWEST WISCONSIN

CITY           SKY/WX    TMP DP  RH WIND       PRES   REMARKS
LA CROSSE      PTCLDY     7  -6  55 W9        30.40R WCI  -7
SPARTA         CLEAR      7  -8  51 NW7       30.38R WCI  -5
VIROQUA        PTCLDY     4  -4  68 NW8       30.32R WCI  -9
BOSCOBEL       PTCLDY     7  -3  64 W3        30.40R
PRAIRIE DU CHI FAIR       8  -5  55 NW12G17   30.40R WCI  -7
PLATTEVILLE    FAIR       5  -3  69 W6        30.35R WCI  -6
$$

WIZ056-057-062-063-064-067-068-050500-
SOUTH CENTRAL WISCONSIN

CITY           SKY/WX    TMP DP  RH WIND       PRES   REMARKS
REEDSBURG      CLOUDY     7  -5  57 W7        30.34R WCI  -4
BARABOO/DELLS  CLOUDY     6  -6  55 CALM      30.33R
LONE ROCK      MOCLDY     8  -5  55 W7        30.38R WCI  -3
MINERAL POINT  MOCLDY     9  -4  56 W6        30.32R WCI  -1
MADISON        MOCLDY     9  -5  53 NW6       30.34R WCI  -1
MIDDLETON      MOCLDY    11  -5  49 NW7       30.35R WCI   0
WATERTOWN      PTCLDY    10  -5  51 NW8       30.33R WCI  -3
MONROE         PTCLDY     9   0  66 W9        30.32R WCI  -5
JANESVILLE     PTCLDY     9  -4  56 W5        30.35R WCI   0
$$

WIZ051-052-058>065-066-070>072-050500-
SOUTHEAST WISCONSIN

CITY           SKY/WX    TMP DP  RH WIND       PRES   REMARKS
MILWAUKEE      MOCLDY    12  -8  40 N12       30.32R WCI  -2
WAUKESHA       PTCLDY     9  -8  47 W7        30.34R WCI  -3
MILWAUKEE/TIMM CLEAR     10  -8  44 NW7       30.34R WCI   0
RACINE         PTCLDY    10  -7  46 W3        30.34R
BURLINGTON     PTCLDY     5  -9  52 W6        30.33R WCI  -6
KENOSHA        PTCLDY     3  -9  57 W6        30.33R WCI  -8
FOND DU LAC    MOCLDY     7  -8  50 NW9       30.33R WCI  -7
SHEBOYGAN      MOCLDY     8  -9  45 NW10      30.31R WCI  -6
WEST BEND      PTCLDY     9  -9  43 NW8       30.32R WCI  -4
JUNEAU         MOCLDY     7  -6  54 NW6       30.33R WCI  -3
$$

LSZ147-162-050500-
LAKE SUPERIOR

STATION/POSITION TIME  TEMP    WIND        PRES    WAVE
                       AIR SEA DIR/SP/G            HT/PER
                 (UTC) (F)     (DEG/KT/KT) (MB)    (FT/S)
DEVILS ISLAND    0400    5     340/ 11/ 13 1028.5R
PORT WING        0300    5     300/ 12/ 18 1026.8
SAXON HARBOR     0300   -1     230/  5/  9 1026.1R
$$

LMZ867-665-643>646-050500-
LAKE MICHIGAN

STATION/POSITION TIME  TEMP    WIND        PRES    WAVE
                       AIR SEA DIR/SP/G            HT/PER
                 (UTC) (F)     (DEG/KT/KT) (MB)    (FT/S)
NORTHPORT PIER   0311    9     320/ 18/ 25 1025.4R
KEWAUNEE LAKESHO 0400    7     320/  5/  8 1025.2R
SHEBOYGAN LAKESH 0400   10     300/ 11/ 15 1028.5R
PORT WASHINGTON  0400   10     300/  5/ 10 1028.1R
MILWAUKEE LAKESH 0400   13     340/  9/ 13   N/A
KENOSHA   LAKESH 0400   12     280/  7/ 10 1027.4R
$$

TC  - TEMPERATURE IN CELSIUS
VSB - VISIBILITY IN STATUTE MILES
WCI - WIND CHILL INDEX
HX  - HEAT INDEX




USA.gov is the U.S. government's official web portal to all federal, state and local government web resources and services.